CW4957 Weather Reports


Display with metric or nautical units.
time (UTC)temp
F
wind
direction
speed
MPH
gust
MPH
rain 1hr
in
rain 24hr
in
rain mn
in
humidity
%
barometer
mb
20260509153804 45 138 0.0 0.0 0.03 0.12 0.12 95 1012.8
20260509153322 45 138 0.0 0.0 0.03 0.12 0.12 95 1012.8
20260509152759 44 138 0.0 0.0 0.02 0.11 0.11 94 1012.8
20260509152305 44 138 0.0 0.0 0.03 0.11 0.11 94 1012.9
20260509151819 44 138 0.0 0.0 0.03 0.11 0.11 94 1012.9
20260509151258 44 138 0.0 1.0 0.03 0.11 0.11 94 1012.9
20260509150810 44 138 0.0 2.0 0.02 0.10 0.10 94 1013.1
20260509150307 43 138 1.0 2.0 0.02 0.10 0.10 94 1013.1
20260509145809 43 138 0.0 0.0 0.02 0.10 0.10 94 1013.1
20260509145306 43 138 0.0 0.0 0.02 0.10 0.10 94 1013.2
20260509144802 43 138 0.0 0.0 0.01 0.09 0.09 94 1013.2
20260509144301 43 138 0.0 0.0 0.01 0.09 0.09 94 1013.2
20260509143757 43 138 0.0 0.0 0.01 0.09 0.09 93 1013.2
20260509143315 43 138 0.0 0.0 0.01 0.09 0.09 93 1013.2
20260509142800 43 138 0.0 0.0 0.01 0.09 0.09 93 1013.2
20260509142314 43 138 0.0 0.0 0.01 0.08 0.08 93 1013.1
20260509141756 42 138 0.0 0.0 0.01 0.08 0.08 93 1013.1
20260509141330 42 138 0.0 1.0 0.01 0.08 0.08 93 1013.1
20260509140807 42 138 0.0 1.0 0.01 0.08 0.08 93 1013.1
20260509140258 42 138 0.0 0.0 0.01 0.08 0.08 93 1013.1
20260509135754 42 138 0.0 0.0 0.01 0.08 0.08 93 1013.1
20260509135256 42 138 0.0 0.0 0.01 0.08 0.08 93 1013.2
20260509134814 42 138 0.0 0.0 0.01 0.08 0.08 93 1013.2
20260509134337 42 138 0.0 0.0 0.01 0.08 0.08 93 1013.2
20260509133815 42 138 0.0 0.0 0.01 0.08 0.08 93 1013.5
20260509133329 42 138 0.0 0.0 0.01 0.08 0.08 93 1013.5
20260509132810 42 138 0.0 0.0 0.01 0.08 0.08 93 1013.5
20260509132307 41 138 0.0 0.0 0.00 0.07 0.07 93 1013.4
20260509131811 41 138 0.0 0.0 0.00 0.07 0.07 93 1013.4
20260509131309 41 138 0.0 0.0 0.00 0.07 0.07 93 1013.4
20260509130805 41 138 0.0 0.0 0.00 0.07 0.07 92 1013.2
20260509130259 41 138 0.0 0.0 0.00 0.07 0.07 92 1013.2
20260509125756 41 153 0.0 1.0 0.00 0.07 0.07 92 1013.2
20260509125314 41 153 0.0 1.0 0.00 0.07 0.07 92 1013.1
20260509124813 41 71 0.0 1.0 0.00 0.07 0.07 92 1013.1
20260509124333 40 71 0.0 1.0 0.00 0.07 0.07 92 1013.1
20260509123808 40 71 0.0 0.0 0.00 0.07 0.07 92 1013.2
20260509123306 40 71 0.0 0.0 0.01 0.07 0.07 92 1013.2
20260509122816 40 71 0.0 0.0 0.01 0.07 0.07 91 1013.2
20260509122300 40 71 0.0 0.0 0.01 0.07 0.07 91 1013.2
20260509121758 40 71 0.0 0.0 0.01 0.07 0.07 91 1013.2
20260509121253 40 71 0.0 0.0 0.01 0.07 0.07 91 1013.2
20260509120833 40 71 0.0 0.0 0.02 0.07 0.07 91 1013.6
20260509120305 40 71 0.0 0.0 0.03 0.07 0.07 91 1013.6
20260509115758 40 71 0.0 0.0 0.04 0.07 0.07 91 1013.6
20260509115258 40 71 0.0 0.0 0.04 0.07 0.07 90 1013.6
20260509114814 40 71 0.0 0.0 0.05 0.07 0.07 90 1013.6
20260509114256 40 71 0.0 0.0 0.05 0.07 0.07 90 1013.6
20260509113815 40 71 0.0 0.0 0.06 0.07 0.07 90 1013.7
20260509113335 40 71 0.0 0.0 0.05 0.06 0.06 90 1013.7
20260509112811 40 71 0.0 0.0 0.05 0.06 0.06 90 1013.7
20260509112315 40 71 0.0 1.0 0.05 0.06 0.06 90 1013.6
20260509111814 40 71 0.0 0.0 0.06 0.06 0.06 90 1013.6
20260509111314 40 71 0.0 0.0 0.06 0.06 0.06 90 1013.6
20260509110804 40 71 0.0 0.0 0.05 0.05 0.05 89 1014.0
20260509110257 40 71 0.0 1.0 0.04 0.04 0.04 89 1014.0
20260509105814 40 71 0.0 1.0 0.03 0.03 0.03 89 1014.0
20260509105310 40 71 0.0 1.0 0.03 0.03 0.03 89 1013.9
20260509104825 39 71 0.0 0.0 0.02 0.02 0.02 89 1013.9
20260509104303 39 71 0.0 2.0 0.02 0.02 0.02 88 1013.9
20260509103821 40 71 0.0 2.0 0.01 0.01 0.01 88 1013.8
20260509103320 40 71 0.0 1.0 0.01 0.01 0.01 89 1013.8
20260509102758 39 71 0.0 0.0 0.01 0.01 0.01 89 1013.8
20260509102314 39 71 0.0 0.0 0.01 0.01 0.01 88 1013.6
20260509101834 39 71 0.0 1.0 0.00 0.00 0.00 88 1013.6
20260509101308 39 71 0.0 1.0 0.00 0.00 0.00 88 1013.6
20260509100813 39 232 0.0 1.0 0.00 0.00 0.00 87 1013.6
20260509100318 39 232 0.0 1.0 0.00 0.00 0.00 87 1013.6
20260509095814 39 232 0.0 1.0 0.00 0.00 0.00 87 1013.6
20260509095330 39 232 0.0 1.0 0.00 0.00 0.00 87 1013.6
20260509094813 38 232 0.0 0.0 0.00 0.00 0.00 88 1013.6
20260509094256 38 232 0.0 0.0 0.00 0.00 0.00 88 1013.6
20260509093810 38 232 0.0 1.0 0.00 0.00 0.00 88 1013.2
20260509093310 38 231 0.0 1.0 0.00 0.00 0.00 88 1013.2
20260509092811 38 232 0.0 0.0 0.00 0.00 0.00 88 1013.2
20260509092310 38 232 0.0 0.0 0.00 0.00 0.00 88 1013.4
20260509091810 38 232 0.0 0.0 0.00 0.00 0.00 88 1013.4
20260509091310 38 232 0.0 0.0 0.00 0.00 0.00 88 1013.4
20260509090805 38 232 0.0 0.0 0.00 0.00 0.00 88 1013.2
20260509090259 38 232 0.0 0.0 0.00 0.00 0.00 87 1013.2
20260509085756 38 232 0.0 0.0 0.00 0.00 0.00 87 1013.2
20260509085315 38 232 0.0 0.0 0.00 0.00 0.00 87 1013.1
20260509084811 38 232 0.0 0.0 0.00 0.00 0.00 87 1013.1
20260509084309 38 232 0.0 0.0 0.00 0.00 0.00 87 1013.1
20260509083811 38 232 0.0 0.0 0.00 0.00 0.00 87 1013.1
20260509083307 38 231 0.0 0.0 0.00 0.00 0.00 87 1013.1
20260509082803 38 232 0.0 0.0 0.00 0.00 0.00 87 1013.1
20260509082319 38 232 0.0 0.0 0.00 0.00 0.00 86 1012.9
20260509081756 38 232 0.0 0.0 0.00 0.00 0.00 86 1012.9
20260509081314 38 232 0.0 0.0 0.00 0.00 0.00 86 1012.9
20260509080808 38 231 0.0 0.0 0.00 0.00 0.00 86 1013.1
20260509080300 38 231 0.0 0.0 0.00 0.00 0.00 86 1013.1
20260509075803 38 231 0.0 0.0 0.00 0.00 0.00 85 1013.1
20260509075259 38 232 0.0 0.0 0.00 0.00 0.00 85 1012.7
20260509074813 38 231 0.0 0.0 0.00 0.00 0.00 85 1012.7
20260509074311 38 231 0.0 0.0 0.00 0.00 0.00 85 1012.7
20260509073807 38 231 0.0 0.0 0.00 0.00 0.00 85 1012.7
20260509073301 38 231 0.0 0.0 0.00 0.00 0.00 85 1012.7
20260509072801 38 231 0.0 0.0 0.00 0.00 0.00 84 1012.7
20260509072307 39 231 0.0 0.0 0.00 0.00 0.00 84 1012.8
20260509071802 39 231 0.0 0.0 0.00 0.00 0.00 83 1012.8
20260509071304 39 231 0.0 0.0 0.00 0.00 0.00 83 1012.8
20260509070801 39 231 0.0 0.0 0.00 0.00 0.00 83 1012.7
20260509070254 39 232 0.0 0.0 0.00 0.00 0.00 83 1012.7
20260509065757 39 231 0.0 0.0 0.00 0.00 0.00 83 1012.7
20260509065330 39 232 0.0 0.0 0.00 0.00 0.00 83 1012.9
20260509064826 39 231 0.0 0.0 0.00 0.00 0.00 83 1012.9
20260509064325 40 231 0.0 0.0 0.00 0.00 0.00 83 1012.9
20260509063801 40 231 0.0 0.0 0.00 0.00 0.00 83 1013.0
20260509063258 40 232 0.0 0.0 0.00 0.00 0.00 83 1013.0
20260509062753 40 232 0.0 0.0 0.00 0.00 0.00 82 1013.0
20260509062256 40 231 0.0 0.0 0.00 0.00 0.00 82 1012.9
20260509061758 40 231 0.0 0.0 0.00 0.00 0.00 82 1012.9
20260509061257 40 232 0.0 0.0 0.00 0.00 0.00 82 1012.9
20260509060808 40 231 0.0 0.0 0.00 0.00 0.00 82 1012.8
20260509060301 40 232 0.0 0.0 0.00 0.00 0.00 82 1012.8
20260509055819 40 232 0.0 0.0 0.00 0.00 0.00 83 1012.8
20260509055300 40 232 0.0 0.0 0.00 0.00 0.00 83 1012.8
20260509054802 40 232 0.0 0.0 0.00 0.00 0.00 83 1012.8
20260509054305 40 232 0.0 0.0 0.00 0.00 0.00 83 1012.8
20260509053823 40 232 0.0 0.0 0.00 0.00 0.00 83 1012.7
20260509053301 40 232 0.0 0.0 0.00 0.00 0.00 83 1012.7
20260509052805 40 232 0.0 0.0 0.00 0.00 0.00 83 1012.7
20260509052310 40 232 0.0 0.0 0.00 0.00 0.00 83 1012.9
20260509051810 40 231 0.0 0.0 0.00 0.00 0.00 83 1012.9
20260509051302 40 231 0.0 0.0 0.00 0.00 0.00 83 1012.9
20260509050805 40 231 0.0 0.0 0.00 0.00 0.00 82 1012.9
20260509050256 40 232 0.0 0.0 0.00 0.00 0.00 81 1012.9
20260509045756 40 232 0.0 0.0 0.00 0.00 0.00 81 1012.9
20260509045256 40 232 0.0 0.0 0.00 0.00 0.00 80 1012.9
20260509044833 41 232 0.0 0.0 0.00 0.00 0.00 81 1012.9
20260509044306 41 231 0.0 0.0 0.00 0.00 0.00 80 1012.9
20260509043805 41 231 0.0 0.0 0.00 0.00 0.00 80 1012.8
20260509043303 41 231 0.0 0.0 0.00 0.00 0.00 79 1012.8
20260509042804 41 232 0.0 0.0 0.00 0.00 0.00 79 1012.8
20260509042300 41 232 0.0 0.0 0.00 0.00 0.00 79 1012.6
20260509041757 41 231 0.0 0.0 0.00 0.00 0.00 79 1012.6
20260509041313 41 231 0.0 0.0 0.00 0.00 0.00 79 1012.6
20260509040755 42 232 0.0 0.0 0.00 0.00 0.00 78 1012.5
20260509040314 42 232 0.0 0.0 0.00 0.00 0.00 78 1012.5
20260509035813 42 232 0.0 0.0 0.00 0.00 0.00 78 1012.5
20260509035309 42 231 0.0 0.0 0.00 0.00 0.00 78 1012.5
20260509034812 42 231 0.0 0.0 0.00 0.00 0.00 78 1012.5
20260509034254 42 232 0.0 0.0 0.00 0.00 0.00 78 1012.5
20260509033833 42 231 0.0 0.0 0.00 0.00 0.00 77 1012.5
20260509033252 43 232 0.0 0.0 0.00 0.00 0.00 77 1012.5
20260509032756 43 231 0.0 0.0 0.00 0.00 0.00 77 1012.5
20260509032307 43 232 0.0 1.0 0.00 0.00 0.00 76 1012.5
20260509031802 43 231 0.0 1.0 0.00 0.00 0.00 76 1012.5
20260509031300 43 232 0.0 1.0 0.00 0.00 0.00 76 1012.5
20260509030800 43 232 0.0 0.0 0.00 0.00 0.00 75 1012.4
20260509030309 44 232 0.0 0.0 0.00 0.00 0.00 75 1012.4
20260509025807 44 231 0.0 0.0 0.00 0.00 0.00 74 1012.4
20260509025327 44 232 0.0 0.0 0.00 0.00 0.00 73 1012.3
20260509024801 44 232 0.0 0.0 0.00 0.00 0.00 73 1012.3
20260509024302 45 232 0.0 2.0 0.00 0.00 0.00 73 1012.3
20260509023800 45 232 1.0 2.0 0.00 0.00 0.00 71 1012.2
20260509023300 45 231 0.0 0.0 0.00 0.00 0.00 70 1012.2
20260509022807 45 231 0.0 0.0 0.00 0.00 0.00 70 1012.2
20260509022312 45 231 0.0 0.0 0.00 0.00 0.00 69 1012.1
20260509021808 46 231 0.0 0.0 0.00 0.00 0.00 69 1012.1
20260509021308 46 231 0.0 0.0 0.00 0.00 0.00 68 1012.1
20260509020803 46 231 0.0 0.0 0.00 0.00 0.00 68 1012.0
20260509020258 46 231 0.0 0.0 0.00 0.00 0.00 67 1012.0
20260509015759 47 231 0.0 0.0 0.00 0.00 0.00 66 1012.0
20260509015333 47 231 0.0 0.0 0.00 0.00 0.00 66 1011.7
20260509014809 47 231 0.0 0.0 0.00 0.00 0.00 66 1011.7
20260509014328 47 231 0.0 0.0 0.00 0.00 0.00 65 1011.7
20260509013809 48 231 0.0 0.0 0.00 0.00 0.00 65 1011.5
20260509013311 48 231 0.0 0.0 0.00 0.00 0.00 64 1011.5
20260509012812 49 231 0.0 0.0 0.00 0.00 0.00 62 1011.5
20260509012311 49 231 0.0 0.0 0.00 0.00 0.00 62 1011.1
20260509011812 49 231 0.0 0.0 0.00 0.00 0.00 61 1011.1
20260509011311 50 231 0.0 0.0 0.00 0.00 0.00 61 1011.1
20260509010814 50 231 0.0 0.0 0.00 0.00 0.00 60 1011.0
20260509010301 50 231 0.0 0.0 0.00 0.00 0.00 59 1011.0
20260509005759 51 231 0.0 0.0 0.00 0.00 0.00 57 1011.0
20260509005255 51 231 0.0 0.0 0.00 0.00 0.00 57 1010.7
20260509004812 51 231 0.0 0.0 0.00 0.00 0.00 56 1010.7
20260509004314 51 231 0.0 0.0 0.00 0.00 0.00 56 1010.7
20260509003812 52 230 0.0 0.0 0.00 0.00 0.00 55 1010.4
20260509003308 52 231 0.0 0.0 0.00 0.00 0.00 54 1010.4
20260509002804 53 231 0.0 0.0 0.00 0.00 0.00 54 1010.4
20260509002300 53 231 0.0 0.0 0.00 0.00 0.00 52 1010.2
20260509001759 53 229 0.0 0.0 0.00 0.00 0.00 51 1010.2
20260509001313 54 360 0.0 0.0 0.00 0.00 0.00 51 1010.2
20260509000806 54 360 0.0 0.0 0.00 0.00 0.00 51 1010.0
20260509000256 54 230 0.0 0.0 0.00 0.00 0.00 51 1010.0
20260508235757 54 360 0.0 0.0 0.00 0.00 0.00 50 1010.0
20260508235306 54 360 0.0 0.0 0.00 0.00 0.00 50 1009.9
20260508234800 54 360 0.0 1.0 0.00 0.00 0.00 49 1009.9
20260508234315 54 360 0.0 2.0 0.00 0.00 0.00 48 1009.9
20260508233757 55 360 0.0 2.0 0.00 0.00 0.00 48 1009.7
20260508233300 55 360 1.0 2.0 0.00 0.00 0.00 47 1009.7
20260508232801 55 360 1.0 2.0 0.00 0.00 0.00 47 1009.7
20260508232307 55 360 0.0 2.0 0.00 0.00 0.00 47 1009.5
20260508231801 55 360 0.0 2.0 0.00 0.00 0.00 48 1009.5
20260508231259 55 360 0.0 2.0 0.00 0.00 0.00 47 1009.5
20260508230757 56 360 0.0 3.0 0.00 0.00 0.00 47 1009.4
20260508230257 56 360 1.0 2.0 0.00 0.00 0.00 47 1009.4
20260508225755 56 360 0.0 2.0 0.00 0.00 0.00 48 1009.4
20260508225258 56 360 1.0 2.0 0.00 0.00 0.00 46 1009.4
20260508224818 56 360 0.0 2.0 0.00 0.00 0.00 45 1009.4
20260508224332 56 360 1.0 2.0 0.00 0.00 0.00 45 1009.4
20260508223812 57 360 0.0 3.0 0.00 0.00 0.00 45 1009.1
20260508223307 57 360 1.0 3.0 0.00 0.00 0.00 45 1009.1
20260508222804 57 360 1.0 3.0 0.00 0.00 0.00 43 1009.1
20260508222306 57 360 1.0 3.0 0.00 0.00 0.00 43 1009.0
20260508221833 57 360 1.0 7.0 0.00 0.00 0.00 44 1009.0
20260508221253 57 360 2.0 7.0 0.00 0.00 0.00 43 1009.0
20260508220757 57 360 1.0 6.0 0.00 0.00 0.00 42 1009.1
20260508220309 58 360 1.0 3.0 0.00 0.00 0.00 42 1009.1
20260508215807 58 360 0.0 3.0 0.00 0.00 0.00 42 1009.1
20260508215306 58 360 1.0 7.0 0.00 0.00 0.00 41 1009.0
20260508214803 58 360 2.0 7.0 0.00 0.00 0.00 40 1009.0
20260508214300 59 360 2.0 6.0 0.00 0.00 0.00 40 1009.0
20260508213800 59 360 4.0 6.0 0.00 0.00 0.00 40 1009.0
20260508213257 59 360 2.0 7.0 0.00 0.00 0.00 40 1009.0
20260508212757 59 360 4.0 7.0 0.00 0.00 0.00 40 1009.0
20260508212310 59 360 2.0 10.0 0.00 0.00 0.00 40 1008.8
20260508211809 59 360 6.0 10.0 0.00 0.00 0.00 39 1008.8
20260508211306 59 360 2.0 7.0 0.00 0.00 0.00 40 1008.8
20260508210825 59 360 2.0 5.0 0.00 0.00 0.00 42 1008.8
20260508210313 59 360 2.0 6.0 0.00 0.00 0.00 42 1008.8
20260508205807 59 360 2.0 6.0 0.00 0.00 0.00 41 1008.8
20260508205325 58 360 1.0 10.0 0.00 0.00 0.00 40 1008.8
20260508204802 58 360 3.0 10.0 0.00 0.00 0.00 39 1008.8
20260508204317 58 360 2.0 6.0 0.00 0.00 0.00 40 1008.8
20260508203757 58 360 2.0 8.0 0.00 0.00 0.00 39 1008.8
20260508203259 59 360 2.0 8.0 0.00 0.00 0.00 39 1008.8
20260508202758 59 360 2.0 7.0 0.00 0.00 0.00 39 1008.8
20260508202256 59 360 3.0 7.0 0.00 0.00 0.00 39 1008.6
20260508201756 59 360 3.0 8.0 0.00 0.00 0.00 39 1008.6
20260508201311 59 360 3.0 8.0 0.00 0.00 0.00 38 1008.6
20260508200810 59 360 1.0 4.0 0.00 0.00 0.00 42 1008.4
20260508200302 58 360 2.0 6.0 0.00 0.00 0.00 41 1008.4
20260508195802 59 360 3.0 10.0 0.00 0.00 0.00 39 1008.4
20260508195259 59 360 4.0 10.0 0.00 0.00 0.00 38 1008.7
20260508194834 59 360 1.0 10.0 0.00 0.00 0.00 40 1008.7
20260508194309 59 360 3.0 10.0 0.00 0.00 0.00 38 1008.7
20260508193810 59 360 2.0 6.0 0.00 0.00 0.00 39 1008.8
20260508193307 59 360 3.0 6.0 0.00 0.00 0.00 39 1008.8
20260508192812 58 360 1.0 5.0 0.00 0.00 0.00 42 1008.8
20260508192307 57 360 1.0 4.0 0.00 0.00 0.00 44 1008.9
20260508191805 57 360 2.0 7.0 0.00 0.00 0.00 42 1008.9
20260508191304 56 360 3.0 7.0 0.00 0.00 0.00 41 1008.9
20260508190801 56 360 3.0 11.0 0.00 0.00 0.00 40 1008.9
20260508190314 56 360 3.0 11.0 0.00 0.00 0.00 41 1008.9
20260508185753 56 360 4.0 8.0 0.00 0.00 0.00 40 1008.9
20260508185254 56 360 3.0 6.0 0.00 0.00 0.00 40 1009.0
20260508184813 56 360 2.0 5.0 0.00 0.00 0.00 40 1009.0
20260508184312 56 360 2.0 4.0 0.00 0.00 0.00 40 1009.0
20260508183812 56 360 1.0 7.0 0.00 0.00 0.00 40 1009.0
20260508183257 56 360 3.0 7.0 0.00 0.00 0.00 39 1009.0
20260508182817 56 360 1.0 6.0 0.00 0.00 0.00 40 1009.0
20260508182257 56 360 1.0 4.0 0.00 0.00 0.00 39 1009.1
20260508181815 56 360 1.0 3.0 0.00 0.00 0.00 40 1009.1
20260508181259 56 360 1.0 4.0 0.00 0.00 0.00 39 1009.1
20260508180801 56 360 1.0 5.0 0.00 0.00 0.00 39 1009.1
20260508180256 57 360 1.0 6.0 0.00 0.00 0.00 39 1009.1
20260508175810 57 360 2.0 6.0 0.00 0.00 0.00 39 1009.1
20260508175306 57 360 1.0 4.0 0.00 0.00 0.00 39 1009.3
20260508174803 57 360 1.0 5.0 0.00 0.00 0.00 39 1009.3
20260508174301 57 360 2.0 5.0 0.00 0.00 0.00 39 1009.3
20260508173820 57 360 2.0 4.0 0.00 0.00 0.00 39 1009.2
20260508173257 57 360 2.0 6.0 0.00 0.00 0.00 40 1009.2
20260508172816 57 360 1.0 6.0 0.00 0.00 0.00 39 1009.2
20260508172257 57 360 1.0 4.0 0.00 0.00 0.00 37 1008.9
20260508171756 57 360 1.0 4.0 0.00 0.00 0.00 37 1008.9
20260508171255 57 360 1.0 6.0 0.00 0.00 0.00 37 1008.9
20260508170758 57 360 2.0 6.0 0.00 0.00 0.00 37 1008.7
20260508170303 57 360 1.0 5.0 0.00 0.00 0.00 38 1008.7
20260508165803 58 360 1.0 4.0 0.00 0.00 0.00 38 1008.7
20260508165301 57 360 1.0 4.0 0.00 0.00 0.00 38 1008.8
20260508164757 57 360 1.0 5.0 0.00 0.00 0.00 40 1008.8
20260508164313 58 360 2.0 5.0 0.00 0.00 0.00 37 1008.8
20260508163835 58 360 2.0 4.0 0.00 0.00 0.00 37 1008.9
20260508163334 58 360 1.0 4.0 0.00 0.00 0.00 37 1008.9
20260508162808 58 360 1.0 3.0 0.00 0.00 0.00 38 1008.9
20260508162307 58 360 1.0 7.0 0.00 0.00 0.00 38 1008.8
20260508161810 58 360 3.0 7.0 0.00 0.00 0.00 37 1008.8
20260508161312 58 360 2.0 4.0 0.00 0.00 0.00 40 1008.8
20260508160831 58 360 1.0 5.0 0.00 0.00 0.00 40 1008.9
20260508160334 57 360 2.0 4.0 0.00 0.00 0.00 42 1008.9
20260508155813 57 360 1.0 5.0 0.00 0.00 0.00 42 1008.9
20260508155253 56 360 1.0 5.0 0.00 0.00 0.00 42 1009.2
20260508154757 56 360 1.0 3.0 0.00 0.00 0.00 42 1009.2
20260508154256 56 360 2.0 5.0 0.00 0.00 0.00 42 1009.2